Year,Month,Day,Hour,Minute,Value (Times are PST for temperature in C)
2019,04,07,00,00,6.70
2019,04,07,00,01,6.60
2019,04,07,00,02,6.60
2019,04,07,00,03,6.60
2019,04,07,00,04,6.60
2019,04,07,00,05,6.60
2019,04,07,00,06,6.60
2019,04,07,00,07,6.60
2019,04,07,00,08,6.60
2019,04,07,00,09,6.60
2019,04,07,00,10,6.60
2019,04,07,00,11,6.60
2019,04,07,00,12,6.60
2019,04,07,00,13,6.60
2019,04,07,00,14,6.60
2019,04,07,00,15,6.50
2019,04,07,00,16,6.50
2019,04,07,00,17,6.50
2019,04,07,00,18,6.50
2019,04,07,00,19,6.50
2019,04,07,00,20,6.50
2019,04,07,00,21,6.40
2019,04,07,00,22,6.40
2019,04,07,00,23,6.40
2019,04,07,00,24,6.40
2019,04,07,00,25,6.40
2019,04,07,00,26,6.40
2019,04,07,00,27,6.40
2019,04,07,00,28,6.40
2019,04,07,00,29,6.40
2019,04,07,00,30,6.30
2019,04,07,00,31,6.30
2019,04,07,00,32,6.30
2019,04,07,00,33,6.30
2019,04,07,00,34,6.30
2019,04,07,00,35,6.30
2019,04,07,00,36,6.30
2019,04,07,00,37,6.30
2019,04,07,00,38,6.30
2019,04,07,00,39,6.30
2019,04,07,00,40,6.30
2019,04,07,00,41,6.30
2019,04,07,00,42,6.30
2019,04,07,00,43,6.30
2019,04,07,00,44,6.30
2019,04,07,00,45,6.30
2019,04,07,00,46,6.30
2019,04,07,00,47,6.30
2019,04,07,00,48,6.30
2019,04,07,00,49,6.30
2019,04,07,00,50,6.30
2019,04,07,00,51,6.30
2019,04,07,00,52,6.30
2019,04,07,00,53,6.30
2019,04,07,00,54,6.30
2019,04,07,00,55,6.30
2019,04,07,00,56,6.30
2019,04,07,00,57,6.30
2019,04,07,00,58,6.30
2019,04,07,00,59,6.30
2019,04,07,01,00,6.30
2019,04,07,01,01,6.20
2019,04,07,01,02,6.20
2019,04,07,01,03,6.20
2019,04,07,01,04,6.20
2019,04,07,01,05,6.20
2019,04,07,01,06,6.20
2019,04,07,01,07,6.20
2019,04,07,01,08,6.20
2019,04,07,01,09,6.20
2019,04,07,01,10,6.20
2019,04,07,01,11,6.20
2019,04,07,01,12,6.20
2019,04,07,01,13,6.20
2019,04,07,01,14,6.20
2019,04,07,01,15,6.20
2019,04,07,01,16,6.20
2019,04,07,01,17,6.20
2019,04,07,01,18,6.20
2019,04,07,01,19,6.20
2019,04,07,01,20,6.20
2019,04,07,01,21,6.20
2019,04,07,01,22,6.20
2019,04,07,01,23,6.20
2019,04,07,01,24,6.20
2019,04,07,01,25,6.20
2019,04,07,01,26,6.20
2019,04,07,01,27,6.20
2019,04,07,01,28,6.20
2019,04,07,01,29,6.20
2019,04,07,01,30,6.20
2019,04,07,01,31,6.20
2019,04,07,01,32,6.20
2019,04,07,01,33,6.20
2019,04,07,01,34,6.20
2019,04,07,01,35,6.20
2019,04,07,01,36,6.20
2019,04,07,01,37,6.20
2019,04,07,01,38,6.20
2019,04,07,01,39,6.20
2019,04,07,01,40,6.20
2019,04,07,01,41,6.20
2019,04,07,01,42,6.20
2019,04,07,01,43,6.20
2019,04,07,01,44,6.20
2019,04,07,01,45,6.20
2019,04,07,01,46,6.20
2019,04,07,01,47,6.20
2019,04,07,01,48,6.20
2019,04,07,01,49,6.20
2019,04,07,01,50,6.20
2019,04,07,01,51,6.20
2019,04,07,01,52,6.20
2019,04,07,01,53,6.20
2019,04,07,01,54,6.20
2019,04,07,01,55,6.20
2019,04,07,01,56,6.20
2019,04,07,01,57,6.20
2019,04,07,01,58,6.20
2019,04,07,01,59,6.20
2019,04,07,02,00,6.20
2019,04,07,02,01,6.30
2019,04,07,02,02,6.30
2019,04,07,02,03,6.30
2019,04,07,02,04,6.30
2019,04,07,02,05,6.30
2019,04,07,02,06,6.30
2019,04,07,02,07,6.30
2019,04,07,02,08,6.30
2019,04,07,02,09,6.30
2019,04,07,02,10,6.30
2019,04,07,02,11,6.30
2019,04,07,02,12,6.30
2019,04,07,02,13,6.30
2019,04,07,02,14,6.30
2019,04,07,02,15,6.30
2019,04,07,02,16,6.30
2019,04,07,02,17,6.30
2019,04,07,02,18,6.30
2019,04,07,02,19,6.30
2019,04,07,02,20,6.30
2019,04,07,02,21,6.30
2019,04,07,02,22,6.30
2019,04,07,02,23,6.40
2019,04,07,02,24,6.40
2019,04,07,02,25,6.40
2019,04,07,02,26,6.40
2019,04,07,02,27,6.40
2019,04,07,02,28,6.40
2019,04,07,02,29,6.40
2019,04,07,02,30,6.40
2019,04,07,02,31,6.50
2019,04,07,02,32,6.50
2019,04,07,02,33,6.50
2019,04,07,02,34,6.50
2019,04,07,02,35,6.50
2019,04,07,02,36,6.50
2019,04,07,02,37,6.50
2019,04,07,02,38,6.50
2019,04,07,02,39,6.40
2019,04,07,02,40,6.50
2019,04,07,02,41,6.50
2019,04,07,02,42,6.50
2019,04,07,02,43,6.50
2019,04,07,02,44,6.50
2019,04,07,02,45,6.50
2019,04,07,02,46,6.50
2019,04,07,02,47,6.50
2019,04,07,02,48,6.50
2019,04,07,02,49,6.50
2019,04,07,02,50,6.50
2019,04,07,02,51,6.50
2019,04,07,02,52,6.50
2019,04,07,02,53,6.50
2019,04,07,02,54,6.50
2019,04,07,02,55,6.50
2019,04,07,02,56,6.50
2019,04,07,02,57,6.50
2019,04,07,02,58,6.50
2019,04,07,02,59,6.50
2019,04,07,03,00,6.50
2019,04,07,03,01,6.50
2019,04,07,03,02,6.40
2019,04,07,03,03,6.40
2019,04,07,03,04,6.40
2019,04,07,03,05,6.40
2019,04,07,03,06,6.40
2019,04,07,03,07,6.40
2019,04,07,03,08,6.40
2019,04,07,03,09,6.30
2019,04,07,03,10,6.30
2019,04,07,03,11,6.30
2019,04,07,03,12,6.30
2019,04,07,03,13,6.30
2019,04,07,03,14,6.30
2019,04,07,03,15,6.30
2019,04,07,03,16,6.30
2019,04,07,03,17,6.30
2019,04,07,03,18,6.30
2019,04,07,03,19,6.30
2019,04,07,03,20,6.30
2019,04,07,03,21,6.30
2019,04,07,03,22,6.30
2019,04,07,03,23,6.30
2019,04,07,03,24,6.30
2019,04,07,03,25,6.30
2019,04,07,03,26,6.30
2019,04,07,03,27,6.30
2019,04,07,03,28,6.30
2019,04,07,03,29,6.30
2019,04,07,03,30,6.30
2019,04,07,03,31,6.30
2019,04,07,03,32,6.30
2019,04,07,03,33,6.30
2019,04,07,03,34,6.30
2019,04,07,03,35,6.30
2019,04,07,03,36,6.30
2019,04,07,03,37,6.30
2019,04,07,03,38,6.30
2019,04,07,03,39,6.30
2019,04,07,03,40,6.30
2019,04,07,03,41,6.30
2019,04,07,03,42,6.20
2019,04,07,03,43,6.20
2019,04,07,03,44,6.20
2019,04,07,03,45,6.20
2019,04,07,03,46,6.20
2019,04,07,03,47,6.20
2019,04,07,03,48,6.20
2019,04,07,03,49,6.20
2019,04,07,03,50,6.20
2019,04,07,03,51,6.20
2019,04,07,03,52,6.20
2019,04,07,03,53,6.20
2019,04,07,03,54,6.20
2019,04,07,03,55,6.10
2019,04,07,03,56,6.10
2019,04,07,03,57,6.10
2019,04,07,03,58,6.10
2019,04,07,03,59,6.10
2019,04,07,04,00,6.10
2019,04,07,04,01,6.10
2019,04,07,04,02,6.10
2019,04,07,04,03,6.10
2019,04,07,04,04,6.10
2019,04,07,04,05,6.00
2019,04,07,04,06,6.00
2019,04,07,04,07,6.00
2019,04,07,04,08,6.00
2019,04,07,04,09,6.00
2019,04,07,04,10,5.90
2019,04,07,04,11,5.90
2019,04,07,04,12,5.90
2019,04,07,04,13,5.90
2019,04,07,04,14,5.90
2019,04,07,04,15,5.90
2019,04,07,04,16,5.90
2019,04,07,04,17,5.90
2019,04,07,04,18,5.90
2019,04,07,04,19,5.80
2019,04,07,04,20,5.80
2019,04,07,04,21,5.80
2019,04,07,04,22,5.80
2019,04,07,04,23,5.80
2019,04,07,04,24,5.80
2019,04,07,04,25,5.80
2019,04,07,04,26,5.80
2019,04,07,04,27,5.80
2019,04,07,04,28,5.80
2019,04,07,04,29,5.80
2019,04,07,04,30,5.80
2019,04,07,04,31,5.80
2019,04,07,04,32,5.80
2019,04,07,04,33,5.80
2019,04,07,04,34,5.80
2019,04,07,04,35,5.80
2019,04,07,04,36,5.70
2019,04,07,04,37,5.80
2019,04,07,04,38,5.70
2019,04,07,04,39,5.70
2019,04,07,04,40,5.70
2019,04,07,04,41,5.70
2019,04,07,04,42,5.70
2019,04,07,04,43,5.70
2019,04,07,04,44,5.70
2019,04,07,04,45,5.70
2019,04,07,04,46,5.70
2019,04,07,04,47,5.70
2019,04,07,04,48,5.70
2019,04,07,04,49,5.70
2019,04,07,04,50,5.70
2019,04,07,04,51,5.70
2019,04,07,04,52,5.70
2019,04,07,04,53,5.70
2019,04,07,04,54,5.70
2019,04,07,04,55,5.70
2019,04,07,04,56,5.70
2019,04,07,04,57,5.70
2019,04,07,04,58,5.80
2019,04,07,04,59,5.80
2019,04,07,05,00,5.80
2019,04,07,05,01,5.80
2019,04,07,05,02,5.80
2019,04,07,05,03,5.80
2019,04,07,05,04,5.80
2019,04,07,05,05,5.80
2019,04,07,05,06,5.80
2019,04,07,05,07,5.80
2019,04,07,05,08,5.80
2019,04,07,05,09,5.80
2019,04,07,05,10,5.80
2019,04,07,05,11,5.80
2019,04,07,05,12,5.80
2019,04,07,05,13,5.80
2019,04,07,05,14,5.80
2019,04,07,05,15,5.80
2019,04,07,05,16,5.70
2019,04,07,05,17,5.70
2019,04,07,05,18,5.70
2019,04,07,05,19,5.70
2019,04,07,05,20,5.70
2019,04,07,05,21,5.70
2019,04,07,05,22,5.70
2019,04,07,05,23,5.70
2019,04,07,05,24,5.70
2019,04,07,05,25,5.70
2019,04,07,05,26,5.70
2019,04,07,05,27,5.70
2019,04,07,05,28,5.70
2019,04,07,05,29,5.70
2019,04,07,05,30,5.70
2019,04,07,05,31,5.70
2019,04,07,05,32,5.70
2019,04,07,05,33,5.70
2019,04,07,05,34,5.70
2019,04,07,05,35,5.70
2019,04,07,05,36,5.70
2019,04,07,05,37,5.70
2019,04,07,05,38,5.70
2019,04,07,05,39,5.70
2019,04,07,05,40,5.70
2019,04,07,05,41,5.70
2019,04,07,05,42,5.70
2019,04,07,05,43,5.70
2019,04,07,05,44,5.70
2019,04,07,05,45,5.70
2019,04,07,05,46,5.70
2019,04,07,05,47,5.60
2019,04,07,05,48,5.60
2019,04,07,05,49,5.60
2019,04,07,05,50,5.60
2019,04,07,05,51,5.60
2019,04,07,05,52,5.60
2019,04,07,05,53,5.60
2019,04,07,05,54,5.60
2019,04,07,05,55,5.60
2019,04,07,05,56,5.60
2019,04,07,05,57,5.60
2019,04,07,05,58,5.60
2019,04,07,05,59,5.60
2019,04,07,06,00,5.60
2019,04,07,06,01,5.60
2019,04,07,06,02,5.50
2019,04,07,06,03,5.50
2019,04,07,06,04,5.50
2019,04,07,06,05,5.60
2019,04,07,06,06,5.50
2019,04,07,06,07,5.50
2019,04,07,06,08,5.50
2019,04,07,06,09,5.50
2019,04,07,06,10,5.50
2019,04,07,06,11,5.50
2019,04,07,06,12,5.50
2019,04,07,06,13,5.50
2019,04,07,06,14,5.50
2019,04,07,06,15,5.50
2019,04,07,06,16,5.50
2019,04,07,06,17,5.50
2019,04,07,06,18,5.50
2019,04,07,06,19,5.50
2019,04,07,06,20,5.40
2019,04,07,06,21,5.40
2019,04,07,06,22,5.40
2019,04,07,06,23,5.40
2019,04,07,06,24,5.40
2019,04,07,06,25,5.40
2019,04,07,06,26,5.40
2019,04,07,06,27,5.40
2019,04,07,06,28,5.40
2019,04,07,06,29,5.30
2019,04,07,06,30,5.30
2019,04,07,06,31,5.30
2019,04,07,06,32,5.30
2019,04,07,06,33,5.30
2019,04,07,06,34,5.30
2019,04,07,06,35,5.30
2019,04,07,06,36,5.20
2019,04,07,06,37,5.20
2019,04,07,06,38,5.20
2019,04,07,06,39,5.20
2019,04,07,06,40,5.20
2019,04,07,06,41,5.20
2019,04,07,06,42,5.10
2019,04,07,06,43,5.10
2019,04,07,06,44,5.10
2019,04,07,06,45,5.10
2019,04,07,06,46,5.10
2019,04,07,06,47,5.10
2019,04,07,06,48,5.10
2019,04,07,06,49,5.10
2019,04,07,06,50,5.10
2019,04,07,06,51,5.10
2019,04,07,06,52,5.10
2019,04,07,06,53,5.10
2019,04,07,06,54,5.10
2019,04,07,06,55,5.10
2019,04,07,06,56,5.10
2019,04,07,06,57,5.10
2019,04,07,06,58,5.10
2019,04,07,06,59,5.10
2019,04,07,07,00,5.10
2019,04,07,07,01,5.10
2019,04,07,07,02,5.10
2019,04,07,07,03,5.00
2019,04,07,07,04,5.00
2019,04,07,07,05,5.00
2019,04,07,07,06,5.00
2019,04,07,07,07,5.00
2019,04,07,07,08,5.00
2019,04,07,07,09,5.00
2019,04,07,07,10,5.00
2019,04,07,07,11,5.00
2019,04,07,07,12,5.00
2019,04,07,07,13,5.00
2019,04,07,07,14,5.00
2019,04,07,07,15,5.00
2019,04,07,07,16,5.10
2019,04,07,07,17,5.10
2019,04,07,07,18,5.10
2019,04,07,07,19,5.20
2019,04,07,07,20,5.20
2019,04,07,07,21,5.20
2019,04,07,07,22,5.20
2019,04,07,07,23,5.20
2019,04,07,07,24,5.30
2019,04,07,07,25,5.30
2019,04,07,07,26,5.30
2019,04,07,07,27,5.30
2019,04,07,07,28,5.30
2019,04,07,07,29,5.30
2019,04,07,07,30,5.40
2019,04,07,07,31,5.40
2019,04,07,07,32,5.40
2019,04,07,07,33,5.40
2019,04,07,07,34,5.40
2019,04,07,07,35,5.40
2019,04,07,07,36,5.40
2019,04,07,07,37,5.40
2019,04,07,07,38,5.40
2019,04,07,07,39,5.40
2019,04,07,07,40,5.40
2019,04,07,07,41,5.40
2019,04,07,07,42,5.40
2019,04,07,07,43,5.40
2019,04,07,07,44,5.40
2019,04,07,07,45,5.40
2019,04,07,07,46,5.40
2019,04,07,07,47,5.40
2019,04,07,07,48,5.40
2019,04,07,07,49,5.30
2019,04,07,07,50,5.30
2019,04,07,07,51,5.30
2019,04,07,07,52,5.30
2019,04,07,07,53,5.30
2019,04,07,07,54,5.30
2019,04,07,07,55,5.30
2019,04,07,07,56,5.30
2019,04,07,07,57,5.30
2019,04,07,07,58,5.30
2019,04,07,07,59,5.20
2019,04,07,08,00,5.20
2019,04,07,08,01,5.20
2019,04,07,08,02,5.20
2019,04,07,08,03,5.20
2019,04,07,08,04,5.20
2019,04,07,08,05,5.20
2019,04,07,08,06,5.20
2019,04,07,08,07,5.20
2019,04,07,08,08,5.20
2019,04,07,08,09,5.20
2019,04,07,08,10,5.20
2019,04,07,08,11,5.20
2019,04,07,08,12,5.20
2019,04,07,08,13,5.20
2019,04,07,08,14,5.20
2019,04,07,08,15,5.20
2019,04,07,08,16,5.20
2019,04,07,08,17,5.20
2019,04,07,08,18,5.20
2019,04,07,08,19,5.30
2019,04,07,08,20,5.30
2019,04,07,08,21,5.30
2019,04,07,08,22,5.30
2019,04,07,08,23,5.30
2019,04,07,08,24,5.30
2019,04,07,08,25,5.40
2019,04,07,08,26,5.40
2019,04,07,08,27,5.40
2019,04,07,08,28,5.40
2019,04,07,08,29,5.50
2019,04,07,08,30,5.50
2019,04,07,08,31,5.60
2019,04,07,08,32,5.60
2019,04,07,08,33,5.60
2019,04,07,08,34,5.60
2019,04,07,08,35,5.60
2019,04,07,08,36,5.60
2019,04,07,08,37,5.70
2019,04,07,08,38,5.70
2019,04,07,08,39,5.70
2019,04,07,08,40,5.70
2019,04,07,08,41,5.70
2019,04,07,08,42,5.70
2019,04,07,08,43,5.70
2019,04,07,08,44,5.70
2019,04,07,08,45,5.80
2019,04,07,08,46,5.80
2019,04,07,08,47,5.80
2019,04,07,08,48,5.80
2019,04,07,08,49,5.90
2019,04,07,08,50,5.90
2019,04,07,08,51,5.90
2019,04,07,08,52,6.00
2019,04,07,08,53,6.00
2019,04,07,08,54,6.00
2019,04,07,08,55,6.10
2019,04,07,08,56,6.10
2019,04,07,08,57,6.10
2019,04,07,08,58,6.20
2019,04,07,08,59,6.20
2019,04,07,09,00,6.30
2019,04,07,09,01,6.40
2019,04,07,09,02,6.40
2019,04,07,09,03,6.50
2019,04,07,09,04,6.60
2019,04,07,09,05,6.60
2019,04,07,09,06,6.70
2019,04,07,09,07,6.70
2019,04,07,09,08,6.80
2019,04,07,09,09,6.90
2019,04,07,09,10,6.90
2019,04,07,09,11,7.00
2019,04,07,09,12,7.00
2019,04,07,09,13,7.00
2019,04,07,09,14,7.00
2019,04,07,09,15,7.00
2019,04,07,09,16,7.10
2019,04,07,09,17,7.10
2019,04,07,09,18,7.10
2019,04,07,09,19,7.10
2019,04,07,09,20,7.10
2019,04,07,09,21,7.10
2019,04,07,09,22,7.20
2019,04,07,09,23,7.20
2019,04,07,09,24,7.20
2019,04,07,09,25,7.30
2019,04,07,09,26,7.30
2019,04,07,09,27,7.30
2019,04,07,09,28,7.40
2019,04,07,09,29,7.50
2019,04,07,09,30,7.50
2019,04,07,09,31,7.50
2019,04,07,09,32,7.50
2019,04,07,09,33,7.50
2019,04,07,09,34,7.60
2019,04,07,09,35,7.60
2019,04,07,09,36,7.60
2019,04,07,09,37,7.70
2019,04,07,09,38,7.70
2019,04,07,09,39,7.80
2019,04,07,09,40,7.80
2019,04,07,09,41,7.80
2019,04,07,09,42,7.90
2019,04,07,09,43,7.90
2019,04,07,09,44,8.00
2019,04,07,09,45,8.00
2019,04,07,09,46,8.10
2019,04,07,09,47,8.10
2019,04,07,09,48,8.10
2019,04,07,09,49,8.10
2019,04,07,09,50,8.10
2019,04,07,09,51,8.10
2019,04,07,09,52,8.10
2019,04,07,09,53,8.10
2019,04,07,09,54,8.10
2019,04,07,09,55,8.10
2019,04,07,09,56,8.10
2019,04,07,09,57,8.10
2019,04,07,09,58,8.00
2019,04,07,09,59,8.00
2019,04,07,10,00,7.90
2019,04,07,10,01,7.90
2019,04,07,10,02,7.90
2019,04,07,10,03,7.90
2019,04,07,10,04,7.90
2019,04,07,10,05,8.00
2019,04,07,10,06,8.00
2019,04,07,10,07,8.00
2019,04,07,10,08,8.10
2019,04,07,10,09,8.10
2019,04,07,10,10,8.20
2019,04,07,10,11,8.20
2019,04,07,10,12,8.30
2019,04,07,10,13,8.40
2019,04,07,10,14,8.40
2019,04,07,10,15,8.50
2019,04,07,10,16,8.60
2019,04,07,10,17,8.70
2019,04,07,10,18,8.70
2019,04,07,10,19,8.80
2019,04,07,10,20,8.80
2019,04,07,10,21,8.80
2019,04,07,10,22,8.80
2019,04,07,10,23,8.80
2019,04,07,10,24,8.80
2019,04,07,10,25,8.80
2019,04,07,10,26,8.80
2019,04,07,10,27,8.80
2019,04,07,10,28,8.80
2019,04,07,10,29,8.80
2019,04,07,10,30,8.80
2019,04,07,10,31,8.70
2019,04,07,10,32,8.70
2019,04,07,10,33,8.70
2019,04,07,10,34,8.70
2019,04,07,10,35,8.80
2019,04,07,10,36,8.70
2019,04,07,10,37,8.70
2019,04,07,10,38,8.70
2019,04,07,10,39,8.70
2019,04,07,10,40,8.70
2019,04,07,10,41,8.70
2019,04,07,10,42,8.70
2019,04,07,10,43,8.70
2019,04,07,10,44,8.70
2019,04,07,10,45,8.70
2019,04,07,10,46,8.70
2019,04,07,10,47,8.70
2019,04,07,10,48,8.70
2019,04,07,10,49,8.70
2019,04,07,10,50,8.70
2019,04,07,10,51,8.70
2019,04,07,10,52,8.80
2019,04,07,10,53,8.80
2019,04,07,10,54,8.80
2019,04,07,10,55,8.90
2019,04,07,10,56,9.00
2019,04,07,10,57,9.00
2019,04,07,10,58,9.10
2019,04,07,10,59,9.20
2019,04,07,11,00,9.30
2019,04,07,11,01,9.40
2019,04,07,11,02,9.50
2019,04,07,11,03,9.60
2019,04,07,11,04,9.70
2019,04,07,11,05,9.70
2019,04,07,11,06,9.70
2019,04,07,11,07,9.80
2019,04,07,11,08,9.80
2019,04,07,11,09,9.80
2019,04,07,11,10,9.80
2019,04,07,11,11,9.80
2019,04,07,11,12,9.70
2019,04,07,11,13,9.70
2019,04,07,11,14,9.70
2019,04,07,11,15,9.70
2019,04,07,11,16,9.70
2019,04,07,11,17,9.70
2019,04,07,11,18,9.70
2019,04,07,11,19,9.70
2019,04,07,11,20,9.70
2019,04,07,11,21,9.80
2019,04,07,11,22,9.80
2019,04,07,11,23,9.80
2019,04,07,11,24,9.80
2019,04,07,11,25,9.80
2019,04,07,11,26,9.90
2019,04,07,11,27,9.90
2019,04,07,11,28,9.80
2019,04,07,11,29,9.80
2019,04,07,11,30,9.80
2019,04,07,11,31,9.90
2019,04,07,11,32,9.90
2019,04,07,11,33,9.90
2019,04,07,11,34,9.90
2019,04,07,11,35,9.90
2019,04,07,11,36,9.90
2019,04,07,11,37,9.90
2019,04,07,11,38,9.90
2019,04,07,11,39,9.90
2019,04,07,11,40,9.90
2019,04,07,11,41,9.90
2019,04,07,11,42,9.90
2019,04,07,11,43,9.90
2019,04,07,11,44,9.90
2019,04,07,11,45,9.90
2019,04,07,11,46,9.90
2019,04,07,11,47,9.90
2019,04,07,11,48,9.90
2019,04,07,11,49,9.80
2019,04,07,11,50,9.80
2019,04,07,11,51,9.80
2019,04,07,11,52,9.80
2019,04,07,11,53,9.80
2019,04,07,11,54,9.90
2019,04,07,11,55,9.90
2019,04,07,11,56,9.90
2019,04,07,11,57,9.90
2019,04,07,11,58,9.90
2019,04,07,11,59,9.90
2019,04,07,12,00,10.00
2019,04,07,12,01,10.00
2019,04,07,12,02,10.10
2019,04,07,12,03,10.20
2019,04,07,12,04,10.30
2019,04,07,12,05,10.50
2019,04,07,12,06,10.60
2019,04,07,12,07,10.70
2019,04,07,12,08,10.80
2019,04,07,12,09,10.90
2019,04,07,12,10,10.90
2019,04,07,12,11,11.00
2019,04,07,12,12,11.00
2019,04,07,12,13,11.10
2019,04,07,12,14,11.10
2019,04,07,12,15,11.20
2019,04,07,12,16,11.20
2019,04,07,12,17,11.30
2019,04,07,12,18,11.40
2019,04,07,12,19,11.40
2019,04,07,12,20,11.50
2019,04,07,12,21,11.70
2019,04,07,12,22,11.80
2019,04,07,12,23,12.00
2019,04,07,12,24,12.00
2019,04,07,12,25,12.00
2019,04,07,12,26,12.00
2019,04,07,12,27,12.00
2019,04,07,12,28,12.00
2019,04,07,12,29,12.00
2019,04,07,12,30,11.90
2019,04,07,12,31,11.80
2019,04,07,12,32,11.80
2019,04,07,12,33,11.70
2019,04,07,12,34,11.60
2019,04,07,12,35,11.70
2019,04,07,12,36,11.70
2019,04,07,12,37,11.80
2019,04,07,12,38,11.80
2019,04,07,12,39,11.80
2019,04,07,12,40,11.70
2019,04,07,12,41,11.60
2019,04,07,12,42,11.50
2019,04,07,12,43,11.40
2019,04,07,12,44,11.40
2019,04,07,12,45,11.30
2019,04,07,12,46,11.30
2019,04,07,12,47,11.30
2019,04,07,12,48,11.30
2019,04,07,12,49,11.30
2019,04,07,12,50,11.40
2019,04,07,12,51,11.50
2019,04,07,12,52,11.50
2019,04,07,12,53,11.60
2019,04,07,12,54,11.70
2019,04,07,12,55,11.70
2019,04,07,12,56,11.60
2019,04,07,12,57,11.60
2019,04,07,12,58,11.50
2019,04,07,12,59,11.50
2019,04,07,13,00,11.50
2019,04,07,13,01,11.50
2019,04,07,13,02,11.40
2019,04,07,13,03,11.40
2019,04,07,13,04,11.30
2019,04,07,13,05,11.30
2019,04,07,13,06,11.20
2019,04,07,13,07,11.20
2019,04,07,13,08,11.30
2019,04,07,13,09,11.30
2019,04,07,13,10,11.40
2019,04,07,13,11,11.60
2019,04,07,13,12,11.60
2019,04,07,13,13,11.70
2019,04,07,13,14,11.80
2019,04,07,13,15,11.70
2019,04,07,13,16,11.70
2019,04,07,13,17,11.60
2019,04,07,13,18,11.70
2019,04,07,13,19,11.70
2019,04,07,13,20,11.60
2019,04,07,13,21,11.60
2019,04,07,13,22,11.60
2019,04,07,13,23,11.70
2019,04,07,13,24,11.90
2019,04,07,13,25,12.20
2019,04,07,13,26,12.40
2019,04,07,13,27,12.70
2019,04,07,13,28,12.90
2019,04,07,13,29,13.10
2019,04,07,13,30,13.20
2019,04,07,13,31,13.30
2019,04,07,13,32,13.20
2019,04,07,13,33,13.10
2019,04,07,13,34,12.90
2019,04,07,13,35,12.80
2019,04,07,13,36,12.80
2019,04,07,13,37,12.70
2019,04,07,13,38,12.70
2019,04,07,13,39,12.60
2019,04,07,13,40,12.50
2019,04,07,13,41,12.50
2019,04,07,13,42,12.40
2019,04,07,13,43,12.20
2019,04,07,13,44,12.10
2019,04,07,13,45,12.00
2019,04,07,13,46,11.90
2019,04,07,13,47,11.90
2019,04,07,13,48,12.00
2019,04,07,13,49,12.20
2019,04,07,13,50,12.30
2019,04,07,13,51,12.40
2019,04,07,13,52,12.60
2019,04,07,13,53,12.60
2019,04,07,13,54,12.50
2019,04,07,13,55,12.40
2019,04,07,13,56,12.40
2019,04,07,13,57,12.40
2019,04,07,13,58,12.50
2019,04,07,13,59,12.70
2019,04,07,14,00,12.80
2019,04,07,14,01,12.80
2019,04,07,14,02,13.00
2019,04,07,14,03,13.20
2019,04,07,14,04,13.20
2019,04,07,14,05,13.30
2019,04,07,14,06,13.30
2019,04,07,14,07,13.20
2019,04,07,14,08,13.30
2019,04,07,14,09,13.30
2019,04,07,14,10,13.40
2019,04,07,14,11,13.30
2019,04,07,14,12,13.10
2019,04,07,14,13,13.00
2019,04,07,14,14,12.80
2019,04,07,14,15,12.80
2019,04,07,14,16,12.80
2019,04,07,14,17,12.90
2019,04,07,14,18,12.90
2019,04,07,14,19,12.90
2019,04,07,14,20,12.80
2019,04,07,14,21,12.70
2019,04,07,14,22,12.60
2019,04,07,14,23,12.60
2019,04,07,14,24,12.60
2019,04,07,14,25,12.60
2019,04,07,14,26,12.60
2019,04,07,14,27,12.70
2019,04,07,14,28,12.80
2019,04,07,14,29,12.80
2019,04,07,14,30,12.90
2019,04,07,14,31,13.00
2019,04,07,14,32,13.00
2019,04,07,14,33,12.90
2019,04,07,14,34,12.80
2019,04,07,14,35,12.50
2019,04,07,14,36,12.40
2019,04,07,14,37,12.30
2019,04,07,14,38,12.20
2019,04,07,14,39,12.10
2019,04,07,14,40,12.10
2019,04,07,14,41,11.90
2019,04,07,14,42,11.90
2019,04,07,14,43,11.90
2019,04,07,14,44,12.00
2019,04,07,14,45,12.10
2019,04,07,14,46,12.10
2019,04,07,14,47,12.20
2019,04,07,14,48,12.20
2019,04,07,14,49,12.10
2019,04,07,14,50,12.00
2019,04,07,14,51,12.00
2019,04,07,14,52,11.90
2019,04,07,14,53,11.90
2019,04,07,14,54,11.90
2019,04,07,14,55,11.90
2019,04,07,14,56,11.90
2019,04,07,14,57,11.90
2019,04,07,14,58,11.90
2019,04,07,14,59,12.10
2019,04,07,15,00,12.20
2019,04,07,15,01,12.20
2019,04,07,15,02,12.20
2019,04,07,15,03,12.20
2019,04,07,15,04,12.40
2019,04,07,15,05,12.40
2019,04,07,15,06,12.60
2019,04,07,15,07,12.60
2019,04,07,15,08,12.60
2019,04,07,15,09,12.70
2019,04,07,15,10,12.80
2019,04,07,15,11,12.90
2019,04,07,15,12,13.10
2019,04,07,15,13,13.20
2019,04,07,15,14,13.30
2019,04,07,15,15,13.40
2019,04,07,15,16,13.60
2019,04,07,15,17,13.70
2019,04,07,15,18,13.70
2019,04,07,15,19,13.60
2019,04,07,15,20,13.40
2019,04,07,15,21,13.30
2019,04,07,15,22,13.10
2019,04,07,15,23,13.10
2019,04,07,15,24,13.20
2019,04,07,15,25,13.30
2019,04,07,15,26,13.40
2019,04,07,15,27,13.70
2019,04,07,15,28,13.90
2019,04,07,15,29,14.00
2019,04,07,15,30,14.10
2019,04,07,15,31,14.10
2019,04,07,15,32,14.10
2019,04,07,15,33,14.10
2019,04,07,15,34,14.10
2019,04,07,15,35,13.90
2019,04,07,15,36,13.90
2019,04,07,15,37,13.80
2019,04,07,15,38,13.90
2019,04,07,15,39,14.00
2019,04,07,15,40,14.00
2019,04,07,15,41,14.00
2019,04,07,15,42,13.90
2019,04,07,15,43,14.00
2019,04,07,15,44,13.90
2019,04,07,15,45,14.00
2019,04,07,15,46,14.10
2019,04,07,15,47,14.20
2019,04,07,15,48,14.40
2019,04,07,15,49,14.40
2019,04,07,15,50,14.40
2019,04,07,15,51,14.40
2019,04,07,15,52,14.50
2019,04,07,15,53,14.50
2019,04,07,15,54,14.40
2019,04,07,15,55,14.30
2019,04,07,15,56,14.40
2019,04,07,15,57,14.40
2019,04,07,15,58,14.30
2019,04,07,15,59,14.20
2019,04,07,16,00,14.10
2019,04,07,16,01,13.90
2019,04,07,16,02,13.90
2019,04,07,16,03,13.90
2019,04,07,16,04,13.90
2019,04,07,16,05,14.00
2019,04,07,16,06,14.10
2019,04,07,16,07,14.00
2019,04,07,16,08,13.90
2019,04,07,16,09,13.90
2019,04,07,16,10,13.90
2019,04,07,16,11,13.90
2019,04,07,16,12,13.80
2019,04,07,16,13,13.70
2019,04,07,16,14,13.70
2019,04,07,16,15,13.80
2019,04,07,16,16,13.90
2019,04,07,16,17,13.90
2019,04,07,16,18,14.00
2019,04,07,16,19,14.10
2019,04,07,16,20,14.10
2019,04,07,16,21,14.10
2019,04,07,16,22,14.10
2019,04,07,16,23,14.10
2019,04,07,16,24,14.00
2019,04,07,16,25,14.00
2019,04,07,16,26,13.90
2019,04,07,16,27,13.80
2019,04,07,16,28,13.70
2019,04,07,16,29,13.60
2019,04,07,16,30,13.50
2019,04,07,16,31,13.40
2019,04,07,16,32,13.20
2019,04,07,16,33,13.10
2019,04,07,16,34,13.00
2019,04,07,16,35,12.90
2019,04,07,16,36,13.00
2019,04,07,16,37,13.00
2019,04,07,16,38,13.10
2019,04,07,16,39,13.20
2019,04,07,16,40,13.20
2019,04,07,16,41,13.20
2019,04,07,16,42,13.20
2019,04,07,16,43,13.30
2019,04,07,16,44,13.40
2019,04,07,16,45,13.40
2019,04,07,16,46,13.40
2019,04,07,16,47,13.40
2019,04,07,16,48,13.40
2019,04,07,16,49,13.30
2019,04,07,16,50,13.30
2019,04,07,16,51,13.30
2019,04,07,16,52,13.20
2019,04,07,16,53,13.00
2019,04,07,16,54,12.90
2019,04,07,16,55,12.90
2019,04,07,16,56,13.00
2019,04,07,16,57,13.00
2019,04,07,16,58,13.00
2019,04,07,16,59,13.00
2019,04,07,17,00,13.00
2019,04,07,17,01,13.10
2019,04,07,17,02,13.00
2019,04,07,17,03,13.10
2019,04,07,17,04,13.10
2019,04,07,17,05,13.10
2019,04,07,17,06,13.10
2019,04,07,17,07,13.20
2019,04,07,17,08,13.20
2019,04,07,17,09,13.10
2019,04,07,17,10,13.00
2019,04,07,17,11,13.00
2019,04,07,17,12,12.90
2019,04,07,17,13,12.90
2019,04,07,17,14,12.90
2019,04,07,17,15,12.90
2019,04,07,17,16,13.00
2019,04,07,17,17,13.00
2019,04,07,17,18,13.00
2019,04,07,17,19,13.00
2019,04,07,17,20,13.00
2019,04,07,17,21,13.00
2019,04,07,17,22,12.90
2019,04,07,17,23,12.90
2019,04,07,17,24,12.80
2019,04,07,17,25,12.70
2019,04,07,17,26,12.70
2019,04,07,17,27,12.60
2019,04,07,17,28,12.60
2019,04,07,17,29,12.50
2019,04,07,17,30,12.50
2019,04,07,17,31,12.40
2019,04,07,17,32,12.40
2019,04,07,17,33,12.40
2019,04,07,17,34,12.50
2019,04,07,17,35,12.50
2019,04,07,17,36,12.60
2019,04,07,17,37,12.60
2019,04,07,17,38,12.60
2019,04,07,17,39,12.50
2019,04,07,17,40,12.30
2019,04,07,17,41,12.10
2019,04,07,17,42,12.00
2019,04,07,17,43,11.90
2019,04,07,17,44,11.90
2019,04,07,17,45,12.00
2019,04,07,17,46,12.00
2019,04,07,17,47,12.10
2019,04,07,17,48,12.10
2019,04,07,17,49,12.10
2019,04,07,17,50,12.10